Year,Month,Day,Hour,Minute,Value (Times are PST for temperature in C)
2020,09,22,00,00,15.20
2020,09,22,00,01,15.20
2020,09,22,00,02,15.10
2020,09,22,00,03,15.10
2020,09,22,00,04,15.10
2020,09,22,00,05,15.10
2020,09,22,00,06,15.10
2020,09,22,00,07,15.10
2020,09,22,00,08,15.10
2020,09,22,00,09,15.00
2020,09,22,00,10,15.00
2020,09,22,00,11,15.00
2020,09,22,00,12,14.90
2020,09,22,00,13,14.90
2020,09,22,00,14,14.90
2020,09,22,00,15,14.90
2020,09,22,00,16,14.90
2020,09,22,00,17,14.90
2020,09,22,00,18,14.80
2020,09,22,00,20,14.80
2020,09,22,00,21,14.80
2020,09,22,00,22,14.80
2020,09,22,00,23,14.80
2020,09,22,00,24,14.80
2020,09,22,00,25,14.80
2020,09,22,00,26,14.80
2020,09,22,00,27,14.80
2020,09,22,00,28,14.80
2020,09,22,00,29,14.80
2020,09,22,00,30,14.80
2020,09,22,00,31,14.80
2020,09,22,00,32,14.80
2020,09,22,00,33,14.80
2020,09,22,00,34,14.80
2020,09,22,00,35,14.80
2020,09,22,00,36,14.80
2020,09,22,00,37,14.80
2020,09,22,00,38,14.80
2020,09,22,00,39,14.80
2020,09,22,00,40,14.80
2020,09,22,00,41,14.80
2020,09,22,00,42,14.80
2020,09,22,00,43,14.70
2020,09,22,00,44,14.70
2020,09,22,00,45,14.70
2020,09,22,00,46,14.70
2020,09,22,00,48,14.70
2020,09,22,00,49,14.70
2020,09,22,00,50,14.70
2020,09,22,00,51,14.70
2020,09,22,00,52,14.70
2020,09,22,00,53,14.70
2020,09,22,00,54,14.60
2020,09,22,00,55,14.60
2020,09,22,00,56,14.60
2020,09,22,00,57,14.60
2020,09,22,00,58,14.60
2020,09,22,00,59,14.60
2020,09,22,01,00,14.60
2020,09,22,01,01,14.60
2020,09,22,01,02,14.60
2020,09,22,01,03,14.60
2020,09,22,01,04,14.60
2020,09,22,01,05,14.60
2020,09,22,01,06,14.60
2020,09,22,01,07,14.60
2020,09,22,01,08,14.60
2020,09,22,01,09,14.60
2020,09,22,01,10,14.60
2020,09,22,01,11,14.50
2020,09,22,01,12,14.50
2020,09,22,01,13,14.50
2020,09,22,01,14,14.50
2020,09,22,01,15,14.50
2020,09,22,01,16,14.50
2020,09,22,01,17,14.50
2020,09,22,01,18,14.50
2020,09,22,01,20,14.50
2020,09,22,01,21,14.40
2020,09,22,01,22,14.40
2020,09,22,01,23,14.50
2020,09,22,01,24,14.40
2020,09,22,01,25,14.50
2020,09,22,01,26,14.40
2020,09,22,01,27,14.40
2020,09,22,01,28,14.50
2020,09,22,01,29,14.40
2020,09,22,01,30,14.50
2020,09,22,01,31,14.50
2020,09,22,01,33,14.50
2020,09,22,01,34,14.50
2020,09,22,01,35,14.50
2020,09,22,01,36,14.50
2020,09,22,01,37,14.50
2020,09,22,01,38,14.50
2020,09,22,01,39,14.60
2020,09,22,01,41,14.60
2020,09,22,01,42,14.60
2020,09,22,01,43,14.60
2020,09,22,01,44,14.50
2020,09,22,01,45,14.50
2020,09,22,01,46,14.50
2020,09,22,01,47,14.50
2020,09,22,01,48,14.50
2020,09,22,01,49,14.50
2020,09,22,01,50,14.50
2020,09,22,01,51,14.50
2020,09,22,01,52,14.50
2020,09,22,01,53,14.50
2020,09,22,01,54,14.50
2020,09,22,01,55,14.50
2020,09,22,01,56,14.50
2020,09,22,01,57,14.50
2020,09,22,01,58,14.50
2020,09,22,01,59,14.50
2020,09,22,02,01,14.50
2020,09,22,02,02,14.50
2020,09,22,02,03,14.50
2020,09,22,02,04,14.40
2020,09,22,02,05,14.40
2020,09,22,02,06,14.40
2020,09,22,02,07,14.40
2020,09,22,02,08,14.40
2020,09,22,02,09,14.40
2020,09,22,02,10,14.40
2020,09,22,02,11,14.40
2020,09,22,02,12,14.40
2020,09,22,02,13,14.40
2020,09,22,02,14,14.40
2020,09,22,02,16,14.40
2020,09,22,02,17,14.40
2020,09,22,02,18,14.40
2020,09,22,02,19,14.40
2020,09,22,02,20,14.40
2020,09,22,02,21,14.40
2020,09,22,02,22,14.40
2020,09,22,02,23,14.40
2020,09,22,02,24,14.40
2020,09,22,02,25,14.40
2020,09,22,02,26,14.30
2020,09,22,02,27,14.30
2020,09,22,02,28,14.30
2020,09,22,02,29,14.30
2020,09,22,02,30,14.30
2020,09,22,02,31,14.30
2020,09,22,02,32,14.30
2020,09,22,02,33,14.30
2020,09,22,02,34,14.30
2020,09,22,02,35,14.30
2020,09,22,02,36,14.30
2020,09,22,02,37,14.30
2020,09,22,02,38,14.30
2020,09,22,02,39,14.30
2020,09,22,02,40,14.20
2020,09,22,02,41,14.20
2020,09,22,02,42,14.20
2020,09,22,02,43,14.20
2020,09,22,02,44,14.20
2020,09,22,02,45,14.20
2020,09,22,02,46,14.20
2020,09,22,02,47,14.20
2020,09,22,02,48,14.20
2020,09,22,02,49,14.20
2020,09,22,02,50,14.20
2020,09,22,02,51,14.10
2020,09,22,02,52,14.10
2020,09,22,02,53,14.10
2020,09,22,02,54,14.10
2020,09,22,02,55,14.10
2020,09,22,02,56,14.10
2020,09,22,02,57,14.10
2020,09,22,02,58,14.10
2020,09,22,02,59,14.10
2020,09,22,03,01,14.10
2020,09,22,03,02,14.10
2020,09,22,03,03,14.10
2020,09,22,03,04,14.10
2020,09,22,03,05,14.10
2020,09,22,03,06,14.10
2020,09,22,03,07,14.10
2020,09,22,03,08,14.10
2020,09,22,03,09,14.10
2020,09,22,03,10,14.10
2020,09,22,03,11,14.10
2020,09,22,03,12,14.10
2020,09,22,03,13,14.10
2020,09,22,03,14,14.10
2020,09,22,03,15,14.10
2020,09,22,03,16,14.10
2020,09,22,03,17,14.10
2020,09,22,03,18,14.10
2020,09,22,03,19,14.10
2020,09,22,03,20,14.10
2020,09,22,03,21,14.10
2020,09,22,03,22,14.10
2020,09,22,03,23,14.10
2020,09,22,03,24,14.10
2020,09,22,03,25,14.10
2020,09,22,03,26,14.10
2020,09,22,03,27,14.10
2020,09,22,03,28,14.20
2020,09,22,03,29,14.20
2020,09,22,03,30,14.20
2020,09,22,03,31,14.20
2020,09,22,03,32,14.20
2020,09,22,03,33,14.20
2020,09,22,03,34,14.20
2020,09,22,03,35,14.20
2020,09,22,03,36,14.20
2020,09,22,03,37,14.20
2020,09,22,03,38,14.20
2020,09,22,03,39,14.20
2020,09,22,03,40,14.20
2020,09,22,03,41,14.20
2020,09,22,03,42,14.20
2020,09,22,03,43,14.20
2020,09,22,03,44,14.20
2020,09,22,03,45,14.20
2020,09,22,03,46,14.20
2020,09,22,03,47,14.20
2020,09,22,03,48,14.20
2020,09,22,03,49,14.20
2020,09,22,03,50,14.20
2020,09,22,03,51,14.20
2020,09,22,03,52,14.20
2020,09,22,03,53,14.20
2020,09,22,03,54,14.20
2020,09,22,03,55,14.20
2020,09,22,03,56,14.20
2020,09,22,03,57,14.20
2020,09,22,03,58,14.20
2020,09,22,03,59,14.20
2020,09,22,04,00,14.20
2020,09,22,04,01,14.20
2020,09,22,04,02,14.20
2020,09,22,04,03,14.20
2020,09,22,04,04,14.20
2020,09,22,04,05,14.20
2020,09,22,04,06,14.20
2020,09,22,04,07,14.20
2020,09,22,04,08,14.20
2020,09,22,04,09,14.20
2020,09,22,04,10,14.20
2020,09,22,04,11,14.20
2020,09,22,04,12,14.20
2020,09,22,04,13,14.20
2020,09,22,04,14,14.20
2020,09,22,04,15,14.20
2020,09,22,04,16,14.20
2020,09,22,04,17,14.20
2020,09,22,04,18,14.20
2020,09,22,04,19,14.20
2020,09,22,04,20,14.20
2020,09,22,04,21,14.30
2020,09,22,04,22,14.30
2020,09,22,04,23,14.30
2020,09,22,04,24,14.30
2020,09,22,04,25,14.30
2020,09,22,04,26,14.30
2020,09,22,04,27,14.30
2020,09,22,04,28,14.30
2020,09,22,04,29,14.30
2020,09,22,04,30,14.30
2020,09,22,04,31,14.30
2020,09,22,04,32,14.30
2020,09,22,04,33,14.30
2020,09,22,04,34,14.30
2020,09,22,04,35,14.20
2020,09,22,04,36,14.20
2020,09,22,04,37,14.10
2020,09,22,04,38,14.10
2020,09,22,04,39,14.10
2020,09,22,04,40,14.10
2020,09,22,04,41,14.10
2020,09,22,04,42,14.10
2020,09,22,04,43,14.10
2020,09,22,04,44,14.10
2020,09,22,04,45,14.00
2020,09,22,04,46,14.00
2020,09,22,04,47,14.00
2020,09,22,04,48,14.00
2020,09,22,04,49,13.90
2020,09,22,04,50,13.90
2020,09,22,04,51,13.90
2020,09,22,04,52,13.90
2020,09,22,04,53,13.90
2020,09,22,04,54,13.90
2020,09,22,04,55,13.90
2020,09,22,04,56,13.90
2020,09,22,04,57,13.80
2020,09,22,04,58,13.80
2020,09,22,04,59,13.80
2020,09,22,05,00,13.80
2020,09,22,05,01,13.80
2020,09,22,05,02,13.80
2020,09,22,05,03,13.80
2020,09,22,05,04,13.80
2020,09,22,05,05,13.80
2020,09,22,05,06,13.80
2020,09,22,05,07,13.80
2020,09,22,05,08,13.80
2020,09,22,05,09,13.80
2020,09,22,05,10,13.80
2020,09,22,05,11,13.80
2020,09,22,05,12,13.70
2020,09,22,05,13,13.70
2020,09,22,05,14,13.70
2020,09,22,05,15,13.70
2020,09,22,05,16,13.70
2020,09,22,05,17,13.70
2020,09,22,05,18,13.70
2020,09,22,05,19,13.60
2020,09,22,05,20,13.60
2020,09,22,05,21,13.60
2020,09,22,05,22,13.60
2020,09,22,05,23,13.70
2020,09,22,05,24,13.70
2020,09,22,05,25,13.70
2020,09,22,05,26,13.70
2020,09,22,05,27,13.70
2020,09,22,05,28,13.70
2020,09,22,05,29,13.70
2020,09,22,05,30,13.70
2020,09,22,05,31,13.70
2020,09,22,05,32,13.70
2020,09,22,05,33,13.70
2020,09,22,05,34,13.70
2020,09,22,05,35,13.70
2020,09,22,05,36,13.60
2020,09,22,05,37,13.60
2020,09,22,05,38,13.60
2020,09,22,05,39,13.60
2020,09,22,05,40,13.60
2020,09,22,05,41,13.60
2020,09,22,05,42,13.60
2020,09,22,05,43,13.60
2020,09,22,05,44,13.60
2020,09,22,05,45,13.60
2020,09,22,05,46,13.60
2020,09,22,05,47,13.60
2020,09,22,05,48,13.60
2020,09,22,05,49,13.60
2020,09,22,05,50,13.50
2020,09,22,05,51,13.50
2020,09,22,05,52,13.50
2020,09,22,05,53,13.50
2020,09,22,05,54,13.40
2020,09,22,05,55,13.40
2020,09,22,05,56,13.40
2020,09,22,05,57,13.40
2020,09,22,05,58,13.40
2020,09,22,05,59,13.40
2020,09,22,06,00,13.40
2020,09,22,06,01,13.40
2020,09,22,06,02,13.40
2020,09,22,06,03,13.40
2020,09,22,06,04,13.40
2020,09,22,06,05,13.40
2020,09,22,06,06,13.40
2020,09,22,06,07,13.40
2020,09,22,06,08,13.40
2020,09,22,06,09,13.40
2020,09,22,06,10,13.40
2020,09,22,06,11,13.40
2020,09,22,06,12,13.40
2020,09,22,06,13,13.40
2020,09,22,06,14,13.40
2020,09,22,06,15,13.40
2020,09,22,06,16,13.40
2020,09,22,06,17,13.40
2020,09,22,06,18,13.40
2020,09,22,06,19,13.40
2020,09,22,06,20,13.40
2020,09,22,06,21,13.50
2020,09,22,06,22,13.50
2020,09,22,06,23,13.40
2020,09,22,06,24,13.40
2020,09,22,06,25,13.50
2020,09,22,06,26,13.50
2020,09,22,06,27,13.50
2020,09,22,06,28,13.50
2020,09,22,06,29,13.50
2020,09,22,06,30,13.50
2020,09,22,06,31,13.50
2020,09,22,06,32,13.50
2020,09,22,06,33,13.50
2020,09,22,06,34,13.40
2020,09,22,06,35,13.40
2020,09,22,06,36,13.40
2020,09,22,06,37,13.40
2020,09,22,06,38,13.40
2020,09,22,06,39,13.30
2020,09,22,06,40,13.30
2020,09,22,06,41,13.30
2020,09,22,06,42,13.30
2020,09,22,06,43,13.20
2020,09,22,06,44,13.20
2020,09,22,06,45,13.20
2020,09,22,06,46,13.20
2020,09,22,06,47,13.10
2020,09,22,06,48,13.10
2020,09,22,06,49,13.00
2020,09,22,06,50,13.00
2020,09,22,06,51,12.90
2020,09,22,06,52,12.90
2020,09,22,06,53,12.90
2020,09,22,06,54,12.80
2020,09,22,06,55,12.80
2020,09,22,06,56,12.80
2020,09,22,06,57,12.80
2020,09,22,06,58,12.80
2020,09,22,06,59,12.80
2020,09,22,07,00,12.80
2020,09,22,07,01,12.80
2020,09,22,07,02,12.80
2020,09,22,07,03,12.80
2020,09,22,07,04,12.80
2020,09,22,07,05,12.80
2020,09,22,07,06,12.80
2020,09,22,07,07,12.70
2020,09,22,07,08,12.70
2020,09,22,07,09,12.70
2020,09,22,07,10,12.70
2020,09,22,07,11,12.80
2020,09,22,07,12,12.80
2020,09,22,07,13,12.80
2020,09,22,07,14,12.80
2020,09,22,07,15,12.80
2020,09,22,07,16,12.90
2020,09,22,07,17,12.90
2020,09,22,07,18,12.90
2020,09,22,07,19,12.90
2020,09,22,07,20,12.90
2020,09,22,07,21,12.90
2020,09,22,07,22,12.90
2020,09,22,07,23,12.90
2020,09,22,07,24,12.90
2020,09,22,07,25,12.90
2020,09,22,07,26,12.90
2020,09,22,07,27,12.90
2020,09,22,07,28,12.90
2020,09,22,07,29,12.90
2020,09,22,07,30,12.90
2020,09,22,07,31,12.90
2020,09,22,07,32,13.00
2020,09,22,07,33,13.00
2020,09,22,07,34,13.00
2020,09,22,07,35,13.00
2020,09,22,07,36,13.00
2020,09,22,07,37,13.00
2020,09,22,07,38,13.00
2020,09,22,07,39,13.00
2020,09,22,07,40,13.10
2020,09,22,07,41,13.10
2020,09,22,07,42,13.10
2020,09,22,07,43,13.10
2020,09,22,07,44,13.10
2020,09,22,07,45,13.10
2020,09,22,07,46,13.10
2020,09,22,07,47,13.10
2020,09,22,07,48,13.10
2020,09,22,07,49,13.10
2020,09,22,07,50,13.10
2020,09,22,07,51,13.10
2020,09,22,07,52,13.10
2020,09,22,07,53,13.10
2020,09,22,07,54,13.10
2020,09,22,07,55,13.10
2020,09,22,07,56,13.10
2020,09,22,07,57,13.10
2020,09,22,07,58,13.00
2020,09,22,07,59,13.00
2020,09,22,08,00,12.90
2020,09,22,08,01,12.90
2020,09,22,08,02,12.80
2020,09,22,08,03,12.80
2020,09,22,08,04,12.80
2020,09,22,08,05,12.70
2020,09,22,08,06,12.70
2020,09,22,08,07,12.70
2020,09,22,08,08,12.70
2020,09,22,08,09,12.70
2020,09,22,08,10,12.70
2020,09,22,08,11,12.70
2020,09,22,08,12,12.70
2020,09,22,08,13,12.70
2020,09,22,08,14,12.70
2020,09,22,08,15,12.70
2020,09,22,08,16,12.70
2020,09,22,08,17,12.70
2020,09,22,08,18,12.70
2020,09,22,08,19,12.70
2020,09,22,08,20,12.70
2020,09,22,08,21,12.70
2020,09,22,08,22,12.80
2020,09,22,08,23,12.90
2020,09,22,08,24,13.00
2020,09,22,08,25,13.10
2020,09,22,08,26,13.10
2020,09,22,08,27,13.20
2020,09,22,08,28,13.30
2020,09,22,08,29,13.30
2020,09,22,08,30,13.30
2020,09,22,08,31,13.40
2020,09,22,08,32,13.50
2020,09,22,08,33,13.60
2020,09,22,08,34,13.70
2020,09,22,08,35,13.70
2020,09,22,08,36,13.80
2020,09,22,08,37,13.90
2020,09,22,08,38,13.90
2020,09,22,08,39,14.00
2020,09,22,08,40,14.10
2020,09,22,08,41,14.20
2020,09,22,08,42,14.20
2020,09,22,08,43,14.30
2020,09,22,08,44,14.30
2020,09,22,08,45,14.40
2020,09,22,08,46,14.40
2020,09,22,08,47,14.50
2020,09,22,08,48,14.50
2020,09,22,08,49,14.60
2020,09,22,08,50,14.60
2020,09,22,08,51,14.60
2020,09,22,08,52,14.70
2020,09,22,08,53,14.70
2020,09,22,08,54,14.70
2020,09,22,08,55,14.80
2020,09,22,08,56,14.80
2020,09,22,08,57,14.90
2020,09,22,08,58,14.90
2020,09,22,08,59,14.90
2020,09,22,09,00,15.00
2020,09,22,09,01,15.10
2020,09,22,09,02,15.10
2020,09,22,09,03,15.20
2020,09,22,09,04,15.20
2020,09,22,09,05,15.30
2020,09,22,09,06,15.30
2020,09,22,09,07,15.40
2020,09,22,09,08,15.40
2020,09,22,09,09,15.50
2020,09,22,09,10,15.60
2020,09,22,09,11,15.60
2020,09,22,09,12,15.60
2020,09,22,09,13,15.70
2020,09,22,09,14,15.70
2020,09,22,09,15,15.80
2020,09,22,09,16,15.80
2020,09,22,09,17,15.90
2020,09,22,09,18,15.90
2020,09,22,09,19,16.00
2020,09,22,09,20,16.10
2020,09,22,09,21,16.10
2020,09,22,09,22,16.10
2020,09,22,09,23,16.20
2020,09,22,09,24,16.20
2020,09,22,09,25,16.20
2020,09,22,09,26,16.20
2020,09,22,09,27,16.30
2020,09,22,09,28,16.30
2020,09,22,09,29,16.30
2020,09,22,09,30,16.30
2020,09,22,09,31,16.30
2020,09,22,09,32,16.40
2020,09,22,09,33,16.40
2020,09,22,09,34,16.40
2020,09,22,09,35,16.40
2020,09,22,09,36,16.50
2020,09,22,09,37,16.50
2020,09,22,09,38,16.50
2020,09,22,09,39,16.60
2020,09,22,09,40,16.60
2020,09,22,09,41,16.60
2020,09,22,09,42,16.60
2020,09,22,09,43,16.60
2020,09,22,09,44,16.60
2020,09,22,09,45,16.60
2020,09,22,09,46,16.70
2020,09,22,09,47,16.70
2020,09,22,09,48,16.70
2020,09,22,09,49,16.70
2020,09,22,09,50,16.70
2020,09,22,09,51,16.70
2020,09,22,09,52,16.70
2020,09,22,09,53,16.80
2020,09,22,09,54,16.80
2020,09,22,09,55,16.80
2020,09,22,09,56,16.90
2020,09,22,09,57,16.90
2020,09,22,09,58,16.90
2020,09,22,09,59,16.90
2020,09,22,10,00,17.00
2020,09,22,10,01,17.00
2020,09,22,10,02,17.00
2020,09,22,10,03,17.00
2020,09,22,10,04,17.00
2020,09,22,10,05,17.10
2020,09,22,10,06,17.10
2020,09,22,10,07,17.00
2020,09,22,10,08,17.00
2020,09,22,10,09,16.90
2020,09,22,10,10,16.90
2020,09,22,10,11,16.90
2020,09,22,10,12,16.80
2020,09,22,10,13,16.80
2020,09,22,10,14,16.70
2020,09,22,10,15,16.70
2020,09,22,10,16,16.70
2020,09,22,10,18,16.70
2020,09,22,10,19,16.70
2020,09,22,10,21,16.70
2020,09,22,10,22,16.70
2020,09,22,10,23,16.70
2020,09,22,10,24,16.70
2020,09,22,10,25,16.70
2020,09,22,10,26,16.70
2020,09,22,10,27,16.70
2020,09,22,10,28,16.70
2020,09,22,10,29,16.60
2020,09,22,10,31,16.60
2020,09,22,10,32,16.60
2020,09,22,10,33,16.60
2020,09,22,10,34,16.70
2020,09,22,10,35,16.70
2020,09,22,10,36,16.70
2020,09,22,10,37,16.70
2020,09,22,10,38,16.70
2020,09,22,10,40,16.80
2020,09,22,10,41,16.80
2020,09,22,10,42,16.80
2020,09,22,10,43,16.70
2020,09,22,10,45,16.80
2020,09,22,10,46,16.70
2020,09,22,10,47,16.70
2020,09,22,10,48,16.70
2020,09,22,10,49,16.70
2020,09,22,10,51,16.70
2020,09,22,10,52,16.70
2020,09,22,10,53,16.70
2020,09,22,10,54,16.70
2020,09,22,10,55,16.70
2020,09,22,10,56,16.70
2020,09,22,10,57,16.70
2020,09,22,10,58,16.70
2020,09,22,10,59,16.70
2020,09,22,11,00,16.80
2020,09,22,11,01,16.80
2020,09,22,11,02,16.80
2020,09,22,11,03,16.80
2020,09,22,11,04,16.80
2020,09,22,11,05,16.80
2020,09,22,11,06,16.80
2020,09,22,11,07,16.80
2020,09,22,11,08,16.90
2020,09,22,11,09,16.90
2020,09,22,11,10,16.90
2020,09,22,11,11,16.90
2020,09,22,11,13,16.90
2020,09,22,11,14,16.90
2020,09,22,11,15,16.90
2020,09,22,11,16,16.90
2020,09,22,11,17,16.90
2020,09,22,11,18,16.90
2020,09,22,11,19,16.90
2020,09,22,11,20,16.90
2020,09,22,11,21,16.90
2020,09,22,11,22,16.90
2020,09,22,11,23,16.90
2020,09,22,11,25,17.00
2020,09,22,11,26,17.00
2020,09,22,11,27,17.10
2020,09,22,11,28,17.10
2020,09,22,11,29,17.20
2020,09,22,11,30,17.20
2020,09,22,11,31,17.20
2020,09,22,11,32,17.30
2020,09,22,11,33,17.30
2020,09,22,11,34,17.40
2020,09,22,11,35,17.40
2020,09,22,11,36,17.40
2020,09,22,11,37,17.50
2020,09,22,11,38,17.60
2020,09,22,11,39,17.60
2020,09,22,11,40,17.60
2020,09,22,11,41,17.60
2020,09,22,11,42,17.60
2020,09,22,11,43,17.60
2020,09,22,11,44,17.60
2020,09,22,11,45,17.60
2020,09,22,11,46,17.60
2020,09,22,11,47,17.60
2020,09,22,11,49,17.60
2020,09,22,11,50,17.60
2020,09,22,11,51,17.70
2020,09,22,11,52,17.70
2020,09,22,11,53,17.70
2020,09,22,11,54,17.70
2020,09,22,11,56,17.80
2020,09,22,11,57,17.80
2020,09,22,11,58,17.80
2020,09,22,12,00,17.80
2020,09,22,12,01,17.80
2020,09,22,12,02,17.90
2020,09,22,12,03,17.90
2020,09,22,12,04,17.90
2020,09,22,12,05,18.00
2020,09,22,12,06,18.10
2020,09,22,12,07,18.10
2020,09,22,12,08,18.10
2020,09,22,12,09,18.10
2020,09,22,12,11,18.10
2020,09,22,12,12,18.10
2020,09,22,12,13,18.10
2020,09,22,12,14,18.10
2020,09,22,12,15,18.10
2020,09,22,12,16,18.10
2020,09,22,12,17,18.10
2020,09,22,12,19,18.10
2020,09,22,12,20,18.00
2020,09,22,12,21,18.10
2020,09,22,12,22,18.10
2020,09,22,12,23,18.10
2020,09,22,12,24,18.10
2020,09,22,12,26,18.20
2020,09,22,12,27,18.30
2020,09,22,12,28,18.30
2020,09,22,12,29,18.30
2020,09,22,12,30,18.30
2020,09,22,12,31,18.30
2020,09,22,12,32,18.30
2020,09,22,12,33,18.30
2020,09,22,12,34,18.30
2020,09,22,12,35,18.30
2020,09,22,12,36,18.30
2020,09,22,12,37,18.30
2020,09,22,12,38,18.30
2020,09,22,12,39,18.30
2020,09,22,12,40,18.40
2020,09,22,12,41,18.40
2020,09,22,12,42,18.60
2020,09,22,12,43,18.60
2020,09,22,12,44,18.70
2020,09,22,12,45,18.70
2020,09,22,12,46,18.80
2020,09,22,12,47,18.80
2020,09,22,12,49,18.90
2020,09,22,12,50,19.00
2020,09,22,12,52,18.90
2020,09,22,12,53,18.90
2020,09,22,12,54,18.90
2020,09,22,12,55,19.00
2020,09,22,12,56,19.10
2020,09,22,12,58,19.10
2020,09,22,12,59,19.10
2020,09,22,13,00,19.20
2020,09,22,13,01,19.20
2020,09,22,13,02,19.20
2020,09,22,13,03,19.20
2020,09,22,13,04,19.30
2020,09,22,13,05,19.30
2020,09,22,13,06,19.40
2020,09,22,13,07,19.40
2020,09,22,13,08,19.40
2020,09,22,13,09,19.50
2020,09,22,13,11,19.70
2020,09,22,13,12,19.80
2020,09,22,13,13,19.80
2020,09,22,13,14,19.90
2020,09,22,13,15,19.90
2020,09,22,13,16,20.00
2020,09,22,13,17,20.00
2020,09,22,13,19,20.00
2020,09,22,13,20,20.00
2020,09,22,13,21,19.90
2020,09,22,13,22,19.80
2020,09,22,13,23,19.80
2020,09,22,13,24,19.80
2020,09,22,13,26,19.80
2020,09,22,13,28,19.80
2020,09,22,13,29,19.80
2020,09,22,13,30,19.70
2020,09,22,13,31,19.70
2020,09,22,13,32,19.60
2020,09,22,13,33,19.60
2020,09,22,13,34,19.50
2020,09,22,13,35,19.40
2020,09,22,13,36,19.40
2020,09,22,13,37,19.50
2020,09,22,13,38,19.50
2020,09,22,13,39,19.60
2020,09,22,13,40,19.70
2020,09,22,13,41,19.70
2020,09,22,13,43,19.80
2020,09,22,13,44,19.80
2020,09,22,13,45,19.80
2020,09,22,13,46,19.80
2020,09,22,13,47,19.70
2020,09,22,13,48,19.70
2020,09,22,13,49,19.70
2020,09,22,13,50,19.70
2020,09,22,13,51,19.70
2020,09,22,13,52,19.70
2020,09,22,13,53,19.70
2020,09,22,13,54,19.80
2020,09,22,13,56,19.80
2020,09,22,13,57,19.90
2020,09,22,13,58,19.90
2020,09,22,13,59,19.90
2020,09,22,14,00,19.90
2020,09,22,14,01,19.90
2020,09,22,14,02,19.90
2020,09,22,14,03,19.90
2020,09,22,14,04,19.90
2020,09,22,14,06,19.70
2020,09,22,14,07,19.70
2020,09,22,14,08,19.70
2020,09,22,14,09,19.60
2020,09,22,14,10,19.60
2020,09,22,14,11,19.60
2020,09,22,14,12,19.60
2020,09,22,14,13,19.60
2020,09,22,14,14,19.50
2020,09,22,14,15,19.50
2020,09,22,14,16,19.50
2020,09,22,14,17,19.60
2020,09,22,14,18,19.60
2020,09,22,14,19,19.60
2020,09,22,14,20,19.50
2020,09,22,14,22,19.40
2020,09,22,14,23,19.30
2020,09,22,14,24,19.20
2020,09,22,14,25,19.20
2020,09,22,14,26,19.20
2020,09,22,14,28,19.20
2020,09,22,14,29,19.10
2020,09,22,14,30,19.10
2020,09,22,14,31,19.10
2020,09,22,14,32,19.00
2020,09,22,14,33,19.00
2020,09,22,14,35,18.90
2020,09,22,14,36,18.90
2020,09,22,14,37,18.90
2020,09,22,14,39,18.90
2020,09,22,14,40,18.80
2020,09,22,14,41,18.80
2020,09,22,14,42,18.80
2020,09,22,14,43,18.80
2020,09,22,14,44,18.70
2020,09,22,14,45,18.70
2020,09,22,14,46,18.70
2020,09,22,14,47,18.70
2020,09,22,14,48,18.70
2020,09,22,14,49,18.70
2020,09,22,14,50,18.70
2020,09,22,14,51,18.70
2020,09,22,14,52,18.80
2020,09,22,14,54,18.80
2020,09,22,14,56,18.90
2020,09,22,14,57,18.90
2020,09,22,14,58,18.80
2020,09,22,14,59,18.80
2020,09,22,15,00,18.80
2020,09,22,15,01,18.80
2020,09,22,15,02,18.80
2020,09,22,15,03,18.70
2020,09,22,15,04,18.70
2020,09,22,15,05,18.70
2020,09,22,15,06,18.70
2020,09,22,15,07,18.60
2020,09,22,15,09,18.60
2020,09,22,15,10,18.60
2020,09,22,15,11,18.70
2020,09,22,15,12,18.70
2020,09,22,15,13,18.70
2020,09,22,15,14,18.70
2020,09,22,15,15,18.80
2020,09,22,15,17,18.80
2020,09,22,15,18,18.80
2020,09,22,15,19,18.80
2020,09,22,15,20,18.70
2020,09,22,15,21,18.70
2020,09,22,15,22,18.70
2020,09,22,15,23,18.70
2020,09,22,15,24,18.60
2020,09,22,15,25,18.50
2020,09,22,15,26,18.40
2020,09,22,15,27,18.40
2020,09,22,15,28,18.40
2020,09,22,15,29,18.40
2020,09,22,15,30,18.30
2020,09,22,15,31,18.30
2020,09,22,15,33,18.10
2020,09,22,15,35,18.00
2020,09,22,15,36,17.90
2020,09,22,15,37,17.90
2020,09,22,15,39,17.80
2020,09,22,15,41,17.70
2020,09,22,15,43,17.70
2020,09,22,15,44,17.60
2020,09,22,15,45,17.50
2020,09,22,15,46,17.40
2020,09,22,15,47,17.40
2020,09,22,15,48,17.40
2020,09,22,15,49,17.30
2020,09,22,15,50,17.20
2020,09,22,15,51,17.10
2020,09,22,15,52,16.90
2020,09,22,15,54,16.70
2020,09,22,15,55,16.60
2020,09,22,15,56,16.60
2020,09,22,15,57,16.40
2020,09,22,15,58,16.40
2020,09,22,15,59,16.30
2020,09,22,16,01,16.20
2020,09,22,16,02,16.20
2020,09,22,16,03,16.10
2020,09,22,16,05,16.10
2020,09,22,16,08,15.90
2020,09,22,16,09,15.90
2020,09,22,16,10,15.90
2020,09,22,16,11,15.90
2020,09,22,16,12,15.90
2020,09,22,16,13,15.90
2020,09,22,16,14,15.90
2020,09,22,16,15,15.90
2020,09,22,16,16,15.90
2020,09,22,16,17,15.90
2020,09,22,16,18,15.90
2020,09,22,16,20,16.00
2020,09,22,16,21,16.00
2020,09,22,16,22,16.00
2020,09,22,16,23,16.10
2020,09,22,16,24,16.10
2020,09,22,16,25,16.10
2020,09,22,16,26,16.20
2020,09,22,16,27,16.20
2020,09,22,16,29,16.30
2020,09,22,16,30,16.30
2020,09,22,16,31,16.30
2020,09,22,16,32,16.30
2020,09,22,16,33,16.40
2020,09,22,16,35,16.50
2020,09,22,16,36,16.50
2020,09,22,16,37,16.60
2020,09,22,16,38,16.60
2020,09,22,16,39,16.60
2020,09,22,16,40,16.70
2020,09,22,16,42,16.70
2020,09,22,16,43,16.70
2020,09,22,16,44,16.70
2020,09,22,16,45,16.70
2020,09,22,16,46,16.80
2020,09,22,16,48,16.80
2020,09,22,16,49,16.80
2020,09,22,16,50,16.80
2020,09,22,16,52,16.80
2020,09,22,16,53,16.80
2020,09,22,16,54,16.80
2020,09,22,16,55,16.80
2020,09,22,16,56,16.80
2020,09,22,16,57,16.80
2020,09,22,16,58,16.80
2020,09,22,16,59,16.80
2020,09,22,17,00,16.80
2020,09,22,17,01,16.80
2020,09,22,17,02,16.80
2020,09,22,17,03,16.80
2020,09,22,17,04,16.80
2020,09,22,17,05,16.80
2020,09,22,17,06,16.80
2020,09,22,17,07,16.80
2020,09,22,17,08,16.80
2020,09,22,17,09,16.80
2020,09,22,17,10,16.80
2020,09,22,17,11,16.80
2020,09,22,17,12,16.80
2020,09,22,17,13,16.80
2020,09,22,17,14,16.70
2020,09,22,17,15,16.70
2020,09,22,17,16,16.70
2020,09,22,17,18,16.60
2020,09,22,17,20,16.60
2020,09,22,17,21,16.50
2020,09,22,17,22,16.50
2020,09,22,17,23,16.40
2020,09,22,17,24,16.40
2020,09,22,17,25,16.30
2020,09,22,17,26,16.30
2020,09,22,17,27,16.30
2020,09,22,17,28,16.30
2020,09,22,17,29,16.20
2020,09,22,17,30,16.20
2020,09,22,17,31,16.20
2020,09,22,17,33,16.20
2020,09,22,17,34,16.20
2020,09,22,17,35,16.10
2020,09,22,17,36,16.10
2020,09,22,17,37,16.10
2020,09,22,17,38,16.00
2020,09,22,17,39,15.90
2020,09,22,17,40,15.90
2020,09,22,17,41,15.90
2020,09,22,17,42,15.90
2020,09,22,17,44,15.80
2020,09,22,17,45,15.80
2020,09,22,17,46,15.80
2020,09,22,17,47,15.80
2020,09,22,17,48,15.80
2020,09,22,17,49,15.80
2020,09,22,17,50,15.70
2020,09,22,17,51,15.70
2020,09,22,17,52,15.70
2020,09,22,17,53,15.70
2020,09,22,17,54,15.60
2020,09,22,17,55,15.60
2020,09,22,17,56,15.60
2020,09,22,17,57,15.60
2020,09,22,17,59,15.60
2020,09,22,18,00,15.60
2020,09,22,18,01,15.50
2020,09,22,18,03,15.50
2020,09,22,18,04,15.50
2020,09,22,18,05,15.50
2020,09,22,18,06,15.50
2020,09,22,18,07,15.50
2020,09,22,18,08,15.50
2020,09,22,18,09,15.50
2020,09,22,18,10,15.50
2020,09,22,18,12,15.50
2020,09,22,18,13,15.50
2020,09,22,18,14,15.40
2020,09,22,18,15,15.50
2020,09,22,18,16,15.50
2020,09,22,18,17,15.50
2020,09,22,18,18,15.50
2020,09,22,18,19,15.50
2020,09,22,18,20,15.50
2020,09,22,18,21,15.50
2020,09,22,18,22,15.50